Tracking 19920 objects as of 14-Oct-2019
HD Live streaming from Space Station
objects crossing your sky now

CZ-3B R/B


CZ-3B R/B is no longer on orbit


NORAD ID: 43921
Int'l Code: 2019-001B
Perigee: N/A
Apogee: N/A
Inclination: N/A
Period: N/A
Semi major axis: N/A
RCS: N/A
Launch date: January 10, 2019
Source: People's Republic of China (PRC)
Launch site: Xichang Space Center, China (XSC)
Decay date: 2019-07-03

Note: This is a ROCKET BODY
aabbcc
Your satellite tracking list
Your tracking list is empty




NASA's NSSDC Master Catalog

Two Line Element Set (TLE):
1 43921U 19001B   19183.72553399  .72495390 -50738-5  10865-2 0  9995
2 43921  26.7532 211.1450 0925678  75.9711 294.1880 14.41341604  6643
Source of the keplerian elements: AFSPC